COSMOS 1691 DEB, 16267

Orbit data source: Space-Track

COSMOS 1691 DEB, 16267 is space debris in LEO originally from a launch on Wed, 09 Oct 1985 UTC launched from the Plesetsk Missile And Space Complex (PKMTR). Debris objects in space refer to the collection of defunct objects orbiting the Earth. Examples of debris include non-operational satellites, rocket bodies, and fragments generated from explosions, collisions, or faulty payload assembly.

Loading next visibility...
COSMOS 1691 DEB details
Identifier
16267, 1985-094L
Orbit
LEO
Last TLE update6 days ago
Origin
Flag of CISRVSN (CIS)
ManufacturerUnknown
MissionSpacecraft
Bus & MotorUnknown
MassUnknown
Launch date (UTC)
1985-10-09 (39 years ago)
Launch vehicleUnknown
Launch site
Plesetsk Missile And Space Complex (PKMTR)
Object type
Payload
Rocket body
Debris
Shape & HBRUnknown
Radar Cross SectionSmall (<0.1 m²)

Expand to show TLE details & history

TLE from 6 days ago
0 COSMOS 1691 DEB
1 16267U 85094L   24355.95925793  .00002637  00000-0  68698-2 0  9993
2 16267  82.6416 174.3652 0024857  29.2791 123.4826 13.16419853472803
Epoch: 2024-12-20T23:01Z
Definitive object data (Epoch: 2024-12-20T23:01:19.885Z)
Latitude26.79592°
Longitude-84.70558°
Altitude1,212.038 km
Speed7.245 km/s
True Right ascension23h 22m 34s
True Declination26° 39' 58"
Sunlit
Object was in daylight at TLE epoch
Visualization TLE readout
Latitude-17.68837°
Longitude-82.77841°
Altitude1,223.877 km
Speed7.233 km/s
Apparent Right ascension02h 17m 46s
Apparent Declination-54° 05' 51"
Sunlit
Object is in daylight
Visualization observer readout
Local Sidereal Time20:54:37
Azimuth139.657° SSE
Elevation-26.6°
Doppler factor1
Orbital elements
Apogee altitude1,214.494 km
Perigee altitude1,176.842 km
Semi-major axis7,573.805 km
Eccentricity0.0024857
Inclination82.6416°
RAAN174.3652°
Arg. of periapsis29.2791°
True anomaly123.71976°
Mean anomaly123.4826°
Eccentric anomaly123.60122°
Mean motion3.29285 °/min
BSTAR0.0068698
Orbital period109.33 mins
Loading maneuver chart data...
Loading historical data...
Loading historical data...
Loading historical data...
Loading historical data...
Loading historical data...
Loading historical data...
Loading historical data...

COSMOS 1691 DEB Visibility forecast

Observer location: undefined°, undefined

Span
Click to sort rows by Start time (UTC) header in descending order
Start Az.
Max El. time (UTC)
Max El. Az.
Max El.
End time (UTC)
End Az.
13 mins2024-12-26 22:56:37.078Z1.843° NNE2024-12-26 23:02:37.078Z62.952° ENE39.944°2024-12-26 23:09:37.078Z155.731° SSE
9 mins2024-12-27 00:48:37.078Z318.669° NNW2024-12-27 00:52:37.078Z278.859° WNW22.804°2024-12-27 00:57:37.078Z230.513° WSW
10 mins2024-12-27 11:14:37.078Z139.948° SSE2024-12-27 11:19:37.078Z79.769° E29.49°2024-12-27 11:24:37.078Z29.072° NE
12 mins2024-12-27 13:03:37.078Z220.278° SW2024-12-27 13:09:37.078Z291.521° WNW33.048°2024-12-27 13:15:37.078Z352.187° N
|